{"data":{"norad_id":59745,"intl_designator":"2024-090R","name":"STARLINK-31805","alt_names":[],"object_type":"PAYLOAD","status":"ACTIVE","operator":null,"country":"US","launch_date":"2024-05-13","launch_site_code":"AFETR","launch_vehicle":null,"mission":null,"orbit_class":"UNKNOWN","rcs_meters":null,"size_class":null,"mass_kg":null,"dimensions":null,"purposes":["comms"],"wikipedia_slug":null,"has_3d_model":false,"image_url":null,"decayed_at":null,"tle_current":{"epoch":"2026-05-25T04:30:01.886112Z","epoch_age_seconds":54998,"freshness":"FRESH","line1":"1 59745U 24090R   26145.18752183 -.00011109  00000+0 -39427-3 0  9999","line2":"2 59745  43.0030 111.1179 0001433 268.9744  91.0943 15.27619306115142","mean_motion":15.27619306,"eccentricity":0.0001433,"inclination_deg":43.003,"raan_deg":111.1179,"arg_perigee_deg":268.9744,"mean_anomaly_deg":91.0943,"bstar":-0.00039427,"rev_number":11514,"period_min":94.264323208285,"perigee_km":481.94821115699,"apogee_km":483.91459336107,"semimajor_km":6861.068402259,"source":"CELESTRAK","updated_at":"2026-05-25T13:38:19.053599Z"}}}